COSMOS 1275 DEB, 15542

Orbit data source: Space-Track

COSMOS 1275 DEB, 15542 is space debris in LEO originally from a launch on Thu, 04 Jun 1981 UTC launched from the Plesetsk Missile And Space Complex (PKMTR). Debris objects in space refer to the collection of defunct objects orbiting the Earth. Examples of debris include non-operational satellites, rocket bodies, and fragments generated from explosions, collisions, or faulty payload assembly.

Loading next visibility...
Identifier
15542, 1981-053KA
Orbit
LEO
Country
Flag of CISCIS
Related business
Manufacturer
Unknown
Mission
Spacecraft
Bus & Motor
Unknown
Mass
Unknown
Launch date (UTC)
1981-06-04 (45 years ago)
Launch vehicle
Unknown
Launch site
Plesetsk Missile And Space Complex (PKMTR)
Object type
Payload
Rocket body
Debris
Shape & HBR
Unknown shape, 0.1 m
Radar Cross Section
Small (<0.1 m²)

Expand to show TLE details & history
Last TLE update: 4 hours ago

TLE from 4 hours ago
0 COSMOS 1275 DEB
1 15542U 81053KA  26038.32795698  .00001125  00000-0  10179-2 0  9991
2 15542  83.0056 161.1713 0067970   3.4530  25.7517 13.81880482208814
Epoch: 2026-02-07T07:52Z
TLE epoch observation values (Epoch: 2026-02-07T07:52:15.483Z)
Latitude
29.35216°
Longitude
-90.4108°
Altitude
916.029 km
Speed
7.419 km/s
True Right ascension
11h 00m 25s
True Declination
29° 12' 31"
Sunlit
Object was in full shadow at epoch
Visualization orbit readout
Latitude
Unknown
Longitude
Unknown
Altitude
Unknown
Speed
Unknown
Apparent Right ascension
Unknown
Apparent Declination
Unknown
Sunlit
N/A
Visualization observer readout
Local Sidereal Time
14:17:46
Azimuth
Unknown
Elevation
Unknown
Doppler factor
Unknown
Orbital elements
Apogee altitude
1,004.2 km
Perigee altitude
904.522 km
Semi-major axis
7,332.498 km
Eccentricity
0.0068
Inclination
83.0056°
RAAN
161.1713°
Arg. of periapsis
3.453°
True anomaly
26.09271°
Mean anomaly
25.7517°
Eccentric anomaly
25.92194°
Mean motion
3.45673 °/min
Orbital period
104.14 mins
BSTAR
0.0010179
Loading maneuver chart data...
Computing Atmospheric mass density...
Loading historical data...
Loading historical data...
Loading historical data...
Loading historical data...
Loading historical data...
Loading historical data...
Loading historical data...

Documentation

Showing up to 5 results
|